Time,TemperatureF,DewpointF,PressureIn,WindDirection,WindDirectionDegrees,WindSpeedMPH,WindSpeedGustMPH,Humidity,HourlyPrecipIn,Conditions,Clouds,dailyrainin,SoftwareType,DateUTC
2013-01-31 00:16:00,33.7,25.0,0.00,NNW,339,13.0,-999.0,70,-99.99,,,0.00,weatherlink.com 1.10,2013-01-31 05:16:00,
2013-01-31 00:31:00,33.0,24.0,0.00,SW,219,14.0,-999.0,70,-99.99,,,0.00,weatherlink.com 1.10,2013-01-31 05:31:00,
2013-01-31 00:46:00,32.9,24.0,0.00,North,360,10.0,-999.0,71,-99.99,,,0.00,weatherlink.com 1.10,2013-01-31 05:46:00,
2013-01-31 01:01:00,32.3,24.0,0.00,NNE,31,8.0,-999.0,70,-99.99,,,0.00,weatherlink.com 1.10,2013-01-31 06:01:00,
2013-01-31 01:16:00,31.8,23.0,0.00,ESE,117,14.0,-999.0,71,-99.99,,,0.00,weatherlink.com 1.10,2013-01-31 06:16:00,
2013-01-31 01:31:00,31.4,23.0,0.00,East,81,16.0,-999.0,70,-99.99,,,0.00,weatherlink.com 1.10,2013-01-31 06:31:00,
2013-01-31 01:46:00,31.1,22.0,0.00,SE,127,4.0,-999.0,70,-99.99,,,0.00,weatherlink.com 1.10,2013-01-31 06:46:00,
2013-01-31 02:01:00,31.1,23.0,0.00,ENE,67,13.0,-999.0,71,-99.99,,,0.00,weatherlink.com 1.10,2013-01-31 07:01:00,
2013-01-31 02:16:00,30.5,22.0,0.00,East,79,22.0,-999.0,71,-99.99,,,0.00,weatherlink.com 1.10,2013-01-31 07:16:00,
2013-01-31 02:31:00,30.2,23.0,0.00,SSW,209,10.0,-999.0,74,-99.99,,,0.00,weatherlink.com 1.10,2013-01-31 07:31:00,
2013-01-31 02:46:00,30.2,23.0,0.00,West,281,12.0,-999.0,75,-99.99,,,0.00,weatherlink.com 1.10,2013-01-31 07:46:00,
2013-01-31 03:01:00,30.0,23.0,0.00,WNW,293,6.0,-999.0,75,-99.99,,,0.00,weatherlink.com 1.10,2013-01-31 08:01:00,
2013-01-31 03:16:00,29.7,23.0,0.00,SSE,166,4.0,-999.0,77,-99.99,,,0.00,weatherlink.com 1.10,2013-01-31 08:16:00,
2013-01-31 03:31:00,29.3,22.0,0.00,East,79,16.0,-999.0,74,-99.99,,,0.00,weatherlink.com 1.10,2013-01-31 08:31:00,
2013-01-31 03:46:00,29.1,22.0,0.00,North,358,17.0,-999.0,74,-99.99,,,0.00,weatherlink.com 1.10,2013-01-31 08:46:00,
2013-01-31 04:01:00,28.6,19.0,0.00,SW,217,6.0,-999.0,68,-99.99,,,0.00,weatherlink.com 1.10,2013-01-31 09:01:00,
2013-01-31 04:16:00,28.4,19.0,0.00,East,93,7.0,-999.0,67,-99.99,,,0.00,weatherlink.com 1.10,2013-01-31 09:16:00,
2013-01-31 04:31:00,28.2,17.0,0.00,North,354,10.0,-999.0,63,-99.99,,,0.00,weatherlink.com 1.10,2013-01-31 09:31:00,
2013-01-31 04:46:00,28.0,19.0,0.00,NNW,335,11.0,-999.0,68,-99.99,,,0.00,weatherlink.com 1.10,2013-01-31 09:46:00,
2013-01-31 05:01:00,28.0,19.0,0.00,ESE,113,9.0,-999.0,69,-99.99,,,0.00,weatherlink.com 1.10,2013-01-31 10:01:00,
2013-01-31 05:16:00,28.1,20.0,0.00,NE,47,9.0,-999.0,73,-99.99,,,0.00,weatherlink.com 1.10,2013-01-31 10:16:00,
2013-01-31 05:31:00,27.8,20.0,0.00,WSW,258,9.0,-999.0,73,-99.99,,,0.00,weatherlink.com 1.10,2013-01-31 10:31:00,
2013-01-31 05:46:00,28.0,19.0,0.00,SE,125,15.0,-999.0,68,-99.99,,,0.00,weatherlink.com 1.10,2013-01-31 10:46:00,
2013-01-31 06:01:00,28.1,18.0,0.00,ENE,61,6.0,-999.0,66,-99.99,,,0.00,weatherlink.com 1.10,2013-01-31 11:01:00,
2013-01-31 06:16:00,27.6,20.0,0.00,SSE,154,13.0,-999.0,74,-99.99,,,0.00,weatherlink.com 1.10,2013-01-31 11:16:00,
2013-01-31 06:31:00,27.3,19.0,0.00,ESE,109,7.0,-999.0,70,-99.99,,,0.00,weatherlink.com 1.10,2013-01-31 11:31:00,
2013-01-31 06:46:00,27.7,18.0,0.00,West,273,19.0,-999.0,68,-99.99,,,0.00,weatherlink.com 1.10,2013-01-31 11:46:00,
2013-01-31 07:01:00,27.7,17.0,0.00,NNW,331,11.0,-999.0,64,-99.99,,,0.00,weatherlink.com 1.10,2013-01-31 12:01:00,
2013-01-31 07:16:00,27.5,17.0,0.00,SE,141,14.0,-999.0,64,-99.99,,,0.00,weatherlink.com 1.10,2013-01-31 12:16:00,
2013-01-31 07:31:00,27.7,17.0,0.00,SW,214,13.0,-999.0,64,-99.99,,,0.00,weatherlink.com 1.10,2013-01-31 12:31:00,
2013-01-31 07:46:00,27.9,17.0,0.00,SSE,165,9.0,-999.0,65,-99.99,,,0.00,weatherlink.com 1.10,2013-01-31 12:46:00,
2013-01-31 08:02:00,26.8,18.0,0.00,NE,41,23.0,-999.0,68,-99.99,,,0.00,weatherlink.com 1.10,2013-01-31 13:02:00,
2013-01-31 08:17:00,26.1,17.0,0.00,SW,216,12.0,-999.0,69,-99.99,,,0.00,weatherlink.com 1.10,2013-01-31 13:17:00,
2013-01-31 08:32:00,26.3,15.0,0.00,ENE,71,12.0,-999.0,63,-99.99,,,0.00,weatherlink.com 1.10,2013-01-31 13:32:00,
2013-01-31 08:47:00,25.5,14.0,0.00,NE,48,8.0,-999.0,63,-99.99,,,0.00,weatherlink.com 1.10,2013-01-31 13:47:00,
2013-01-31 09:02:00,25.4,14.0,0.00,East,90,15.0,-999.0,61,-99.99,,,0.00,weatherlink.com 1.10,2013-01-31 14:02:00,
2013-01-31 09:17:00,24.9,13.0,0.00,ESE,121,13.0,-999.0,61,-99.99,,,0.00,weatherlink.com 1.10,2013-01-31 14:17:00,
2013-01-31 09:32:00,25.4,14.0,0.00,ESE,105,18.0,-999.0,62,-99.99,,,0.00,weatherlink.com 1.10,2013-01-31 14:32:00,
2013-01-31 09:47:00,25.7,13.0,0.00,WNW,297,9.0,-999.0,58,-99.99,,,0.00,weatherlink.com 1.10,2013-01-31 14:47:00,
2013-01-31 10:02:00,25.9,14.0,0.00,ESE,108,3.0,-999.0,60,-99.99,,,0.00,weatherlink.com 1.10,2013-01-31 15:02:00,
2013-01-31 10:17:00,26.4,14.0,0.00,WNW,283,4.0,-999.0,59,-99.99,,,0.00,weatherlink.com 1.10,2013-01-31 15:17:00,
2013-01-31 10:32:00,26.6,13.0,0.00,North,350,9.0,-999.0,57,-99.99,,,0.00,weatherlink.com 1.10,2013-01-31 15:32:00,
2013-01-31 10:47:00,26.7,13.0,0.00,ENE,58,13.0,-999.0,57,-99.99,,,0.00,weatherlink.com 1.10,2013-01-31 15:47:00,
2013-01-31 11:02:00,27.1,13.0,0.00,East,89,9.0,-999.0,55,-99.99,,,0.00,weatherlink.com 1.10,2013-01-31 16:02:00,
2013-01-31 11:17:00,27.6,15.0,0.00,WNW,286,4.0,-999.0,59,-99.99,,,0.00,weatherlink.com 1.10,2013-01-31 16:17:00,
2013-01-31 11:32:00,27.7,13.0,0.00,East,95,15.0,-999.0,54,-99.99,,,0.00,weatherlink.com 1.10,2013-01-31 16:32:00,
2013-01-31 11:47:00,28.0,13.0,0.00,ESE,110,16.0,-999.0,53,-99.99,,,0.00,weatherlink.com 1.10,2013-01-31 16:47:00,
2013-01-31 12:02:00,28.7,13.0,0.00,ENE,61,8.0,-999.0,52,-99.99,,,0.00,weatherlink.com 1.10,2013-01-31 17:02:00,
2013-01-31 12:17:00,28.6,14.0,0.00,WSW,248,12.0,-999.0,54,-99.99,,,0.00,weatherlink.com 1.10,2013-01-31 17:17:00,
2013-01-31 12:32:00,28.3,16.0,0.00,North,360,6.0,-999.0,61,-99.99,,,0.00,weatherlink.com 1.10,2013-01-31 17:32:00,
2013-01-31 12:47:00,28.3,16.0,0.00,WSW,254,5.0,-999.0,61,-99.99,,,0.00,weatherlink.com 1.10,2013-01-31 17:47:00,
2013-01-31 13:02:00,28.5,17.0,0.00,WNW,300,18.0,-999.0,63,-99.99,,,0.00,weatherlink.com 1.10,2013-01-31 18:02:00,
2013-01-31 13:17:00,28.6,18.0,0.00,WNW,293,4.0,-999.0,65,-99.99,,,0.00,weatherlink.com 1.10,2013-01-31 18:17:00,
2013-01-31 13:32:00,29.2,19.0,0.00,NNW,337,11.0,-999.0,66,-99.99,,,0.00,weatherlink.com 1.10,2013-01-31 18:32:00,
2013-01-31 13:47:00,29.8,19.0,0.00,SW,221,13.0,-999.0,65,-99.99,,,0.00,weatherlink.com 1.10,2013-01-31 18:47:00,
2013-01-31 14:02:00,29.8,18.0,0.00,South,181,6.0,-999.0,63,-99.99,,,0.00,weatherlink.com 1.10,2013-01-31 19:02:00,
2013-01-31 14:17:00,29.0,19.0,0.00,ESE,112,10.0,-999.0,66,-99.99,,,0.00,weatherlink.com 1.10,2013-01-31 19:17:00,
2013-01-31 14:32:00,29.1,20.0,0.00,SE,124,5.0,-999.0,69,-99.99,,,0.00,weatherlink.com 1.10,2013-01-31 19:32:00,
2013-01-31 14:47:00,29.4,19.0,0.00,SSE,160,13.0,-999.0,66,-99.99,,,0.00,weatherlink.com 1.10,2013-01-31 19:47:00,
2013-01-31 15:02:00,30.6,19.0,0.00,ESE,115,12.0,-999.0,63,-99.99,,,0.00,weatherlink.com 1.10,2013-01-31 20:02:00,
2013-01-31 15:17:00,31.1,18.0,0.00,South,182,3.0,-999.0,58,-99.99,,,0.00,weatherlink.com 1.10,2013-01-31 20:17:00,
2013-01-31 15:32:00,31.3,21.0,0.00,SSE,152,6.0,-999.0,65,-99.99,,,0.00,weatherlink.com 1.10,2013-01-31 20:32:00,
2013-01-31 15:47:00,31.1,22.0,0.00,WNW,285,12.0,-999.0,68,-99.99,,,0.00,weatherlink.com 1.10,2013-01-31 20:47:00,
2013-01-31 16:02:00,30.8,19.0,0.00,SSW,213,9.0,-999.0,63,-99.99,,,0.00,weatherlink.com 1.10,2013-01-31 21:02:00,
2013-01-31 16:17:00,30.9,19.0,0.00,WNW,302,5.0,-999.0,62,-99.99,,,0.00,weatherlink.com 1.10,2013-01-31 21:17:00,
2013-01-31 16:32:00,31.2,18.0,0.00,SE,135,6.0,-999.0,58,-99.99,,,0.00,weatherlink.com 1.10,2013-01-31 21:32:00,
2013-01-31 16:47:00,31.6,18.0,0.00,WSW,256,6.0,-999.0,57,-99.99,,,0.00,weatherlink.com 1.10,2013-01-31 21:47:00,
2013-01-31 17:02:00,31.3,18.0,0.00,South,179,19.0,-999.0,57,-99.99,,,0.00,weatherlink.com 1.10,2013-01-31 22:02:00,
2013-01-31 17:17:00,31.2,17.0,0.00,West,271,7.0,-999.0,57,-99.99,,,0.00,weatherlink.com 1.10,2013-01-31 22:17:00,
2013-01-31 17:32:00,31.2,17.0,0.00,WSW,240,3.0,-999.0,56,-99.99,,,0.00,weatherlink.com 1.10,2013-01-31 22:32:00,
2013-01-31 17:47:00,31.2,17.0,0.00,SE,126,6.0,-999.0,56,-99.99,,,0.00,weatherlink.com 1.10,2013-01-31 22:47:00,
2013-01-31 18:02:00,31.1,17.0,0.00,WNW,286,11.0,-999.0,57,-99.99,,,0.00,weatherlink.com 1.10,2013-01-31 23:02:00,
2013-01-31 18:17:00,30.6,19.0,0.00,NNE,21,10.0,-999.0,63,-99.99,,,0.00,weatherlink.com 1.10,2013-01-31 23:17:00,
2013-01-31 18:32:00,30.3,20.0,0.00,West,278,6.0,-999.0,66,-99.99,,,0.00,weatherlink.com 1.10,2013-01-31 23:32:00,
2013-01-31 18:47:00,30.0,21.0,0.00,ENE,71,11.0,-999.0,68,-99.99,,,0.00,weatherlink.com 1.10,2013-01-31 23:47:00,
2013-01-31 19:02:00,29.7,22.0,0.00,SW,236,13.0,-999.0,73,-99.99,,,0.00,weatherlink.com 1.10,2013-02-01 00:02:00,
2013-01-31 19:17:00,29.2,23.0,0.00,WSW,256,9.0,-999.0,77,-99.99,,,0.00,weatherlink.com 1.10,2013-02-01 00:17:00,
2013-01-31 19:32:00,29.0,24.0,0.00,WNW,289,12.0,-999.0,80,-99.99,,,0.00,weatherlink.com 1.10,2013-02-01 00:32:00,
2013-01-31 19:47:00,29.4,24.0,0.00,ESE,108,6.0,-999.0,81,-99.99,,,0.00,weatherlink.com 1.10,2013-02-01 00:47:00,
2013-01-31 20:02:00,29.2,23.0,0.00,NW,306,7.0,-999.0,79,-99.99,,,0.00,weatherlink.com 1.10,2013-02-01 01:02:00,
2013-01-31 20:17:00,29.3,23.0,0.00,West,274,6.0,-999.0,77,-99.99,,,0.00,weatherlink.com 1.10,2013-02-01 01:17:00,
2013-01-31 20:47:00,28.6,23.0,0.00,ESE,106,4.0,-999.0,80,-99.99,,,0.00,weatherlink.com 1.10,2013-02-01 01:47:00,
2013-01-31 21:02:00,27.0,24.0,0.00,East,82,9.0,-999.0,88,-99.99,,,0.00,weatherlink.com 1.10,2013-02-01 02:02:00,
2013-01-31 21:17:00,24.9,20.0,0.00,East,83,22.0,-999.0,83,-99.99,,,0.00,weatherlink.com 1.10,2013-02-01 02:17:00,
2013-01-31 21:32:00,24.6,20.0,0.00,ENE,76,14.0,-999.0,83,-99.99,,,0.00,weatherlink.com 1.10,2013-02-01 02:32:00,
2013-01-31 21:47:00,24.4,21.0,0.00,East,85,15.0,-999.0,85,-99.99,,,0.00,weatherlink.com 1.10,2013-02-01 02:47:00,
2013-01-31 22:02:00,23.4,20.0,0.00,NE,50,16.0,-999.0,87,-99.99,,,0.00,weatherlink.com 1.10,2013-02-01 03:02:00,
2013-01-31 22:17:00,22.5,19.0,0.00,SE,136,7.0,-999.0,87,-99.99,,,0.00,weatherlink.com 1.10,2013-02-01 03:17:00,
2013-01-31 22:32:00,21.7,17.0,0.00,East,81,21.0,-999.0,83,-99.99,,,0.00,weatherlink.com 1.10,2013-02-01 03:32:00,
2013-01-31 22:47:00,21.1,16.0,0.00,ENE,77,21.0,-999.0,79,-99.99,,,0.00,weatherlink.com 1.10,2013-02-01 03:47:00,
2013-01-31 23:02:00,20.4,14.0,0.00,ESE,117,10.0,-999.0,77,-99.99,,,0.00,weatherlink.com 1.10,2013-02-01 04:02:00,
2013-01-31 23:17:00,20.2,13.0,0.00,East,83,17.0,-999.0,75,-99.99,,,0.00,weatherlink.com 1.10,2013-02-01 04:17:00,
2013-01-31 23:33:00,19.2,15.0,0.00,ENE,74,12.0,-999.0,83,-99.99,,,0.00,weatherlink.com 1.10,2013-02-01 04:33:00,
2013-01-31 23:48:00,18.5,13.0,0.00,East,84,22.0,-999.0,80,-99.99,,,0.00,weatherlink.com 1.10,2013-02-01 04:48:00,